EW9688 Weather Reports


Display with metric or nautical units.
time (UTC)temp
F
wind
direction
speed
MPH
gust
MPH
rain 1hr
in
rain 24hr
in
rain mn
in
humidity
%
barometer
mb
20260906092828 63 0.0 0.0 0.00 0.02 0.00 60 1022.5
20260906091829 64 226 1.0 1.0 0.00 0.02 0.00 61 1022.5
20260906090829 64 0.0 0.0 0.00 0.02 0.00 59 1022.3
20260906085836 66 223 1.0 1.0 0.00 0.02 0.00 57 1022.4
20260906084836 67 272 2.0 2.0 0.00 0.02 0.00 52 1022.2
20260906083837 67 329 2.0 3.0 0.00 0.02 0.00 53 1022.1
20260906082837 67 358 3.0 3.0 0.00 0.02 0.00 52 1021.9
20260906081837 67 314 1.0 2.0 0.00 0.02 0.00 53 1021.9
20260906080858 68 313 2.0 3.0 0.00 0.02 0.00 53 1021.8
20260906075838 67 303 3.0 4.0 0.00 0.02 0.00 52 1022.0
20260906074838 66 339 2.0 3.0 0.00 0.02 0.00 54 1022.1
20260906073857 66 0.0 0.0 0.00 0.02 0.00 57 1022.1
20260906072858 67 326 0.0 0.0 0.00 0.02 0.00 55 1022.1
20260906071816 67 281 1.0 1.0 0.00 0.02 0.00 55 1022.1
20260906070816 67 295 2.0 2.0 0.00 0.02 0.00 56 1022.2
20260906065836 68 307 1.0 1.0 0.00 0.02 0.00 53 1022.1
20260906064838 68 320 1.0 2.0 0.00 0.02 0.00 57 1022.3
20260906063840 68 240 1.0 1.0 0.00 0.02 0.00 58 1022.3
20260906062831 68 328 2.0 2.0 0.00 0.02 0.00 60 1022.4
20260906061853 69 265 2.0 2.0 0.01 0.02 0.00 59 1022.4
20260906060832 69 3 2.0 3.0 0.02 0.02 0.00 58 1022.3
20260906055817 69 186 3.0 4.0 0.02 0.02 0.02 59 1022.3
20260906054817 69 279 1.0 2.0 0.02 0.02 0.02 58 1022.3
20260906053837 70 223 2.0 3.0 0.02 0.02 0.02 59 1022.2
20260906052820 71 15 6.0 8.0 0.02 0.02 0.02 57 1022.2
20260906051833 73 316 2.0 2.0 0.01 0.01 0.01 51 1023.1
20260906050853 74 152 3.0 3.0 0.00 0.00 0.00 43 1023.2
20260906045818 74 94 2.0 3.0 0.00 0.00 0.00 43 1023.1
20260906044819 75 165 2.0 2.0 0.00 0.00 0.00 40 1022.9
20260906043819 76 315 1.0 1.0 0.00 0.00 0.00 39 1022.2
20260906042822 77 17 5.0 6.0 0.00 0.00 0.00 37 1022.0
20260906041835 77 341 5.0 7.0 0.00 0.00 0.00 38 1021.9
20260906040822 77 253 5.0 7.0 0.00 0.00 0.00 38 1021.7
20260906035819 77 283 4.0 7.0 0.00 0.00 0.00 37 1021.7
20260906034841 76 198 4.0 6.0 0.00 0.00 0.00 36 1021.8
20260906033819 75 322 3.0 4.0 0.00 0.00 0.00 35 1021.4
20260906032900 75 282 2.0 3.0 0.00 0.00 0.00 36 1021.3
20260906031820 75 305 1.0 1.0 0.00 0.00 0.00 36 1021.3
20260906030821 75 250 2.0 3.0 0.00 0.00 0.00 36 1021.3
20260906025829 76 292 2.0 5.0 0.00 0.00 0.00 36 1021.0
20260906024833 76 292 3.0 3.0 0.00 0.00 0.00 36 1020.9
20260906023853 77 273 1.0 2.0 0.00 0.00 0.00 35 1020.7
20260906022832 77 287 2.0 3.0 0.00 0.00 0.00 35 1020.7
20260906021821 78 297 2.0 3.0 0.00 0.00 0.00 34 1020.6
20260906020819 79 294 2.0 3.0 0.00 0.00 0.00 33 1020.5
20260906015818 79 306 3.0 3.0 0.00 0.00 0.00 32 1020.6
20260906014838 79 309 3.0 6.0 0.00 0.00 0.00 33 1020.5
20260906013844 79 264 1.0 3.0 0.00 0.00 0.00 32 1020.5
20260906012818 80 319 1.0 2.0 0.00 0.00 0.00 33 1020.4
20260906011822 80 304 2.0 3.0 0.00 0.00 0.00 33 1020.4
20260906010822 80 334 2.0 4.0 0.00 0.00 0.00 33 1020.4
20260906005819 80 275 3.0 5.0 0.00 0.00 0.00 32 1020.5
20260906004822 81 305 2.0 5.0 0.00 0.00 0.00 32 1020.5
20260906003819 81 284 3.0 4.0 0.00 0.00 0.00 31 1020.4
20260906002819 82 288 3.0 6.0 0.00 0.00 0.00 31 1020.6
20260906001822 83 9 2.0 3.0 0.00 0.00 0.00 28 1020.5
20260906000822 84 15 2.0 3.0 0.00 0.00 0.00 28 1020.4
20260905235854 84 33 2.0 3.0 0.00 0.00 0.00 27 1020.3
20260905234828 84 15 3.0 4.0 0.00 0.00 0.00 27 1020.3
20260905233823 85 17 2.0 2.0 0.00 0.00 0.00 28 1020.3
20260905232855 86 40 2.0 3.0 0.00 0.00 0.00 28 1020.2
20260905231844 86 42 3.0 4.0 0.00 0.00 0.00 28 1020.2
20260905230823 86 23 4.0 7.0 0.00 0.00 0.00 27 1020.1
20260905225835 87 51 3.0 4.0 0.00 0.00 0.00 27 1020.0
20260905224917 88 149 2.0 3.0 0.00 0.00 0.00 26 1019.9
20260905223836 87 40 2.0 2.0 0.00 0.00 0.00 25 1020.0
20260905222836 87 38 2.0 3.0 0.00 0.00 0.00 26 1020.0
20260905221834 87 142 4.0 5.0 0.00 0.00 0.00 26 1020.1
20260905220836 88 165 0.0 0.0 0.00 0.00 0.00 25 1020.1
20260905215821 88 139 5.0 6.0 0.00 0.00 0.00 26 1020.1
20260905214857 88 59 3.0 4.0 0.00 0.00 0.00 26 1020.3
20260905213823 87 88 3.0 5.0 0.00 0.00 0.00 26 1020.4
20260905212822 86 91 2.0 3.0 0.00 0.00 0.00 26 1020.5
20260905211834 87 118 5.0 8.0 0.00 0.00 0.00 26 1020.6
20260905210838 86 86 1.0 2.0 0.00 0.00 0.00 27 1020.7
20260905205822 86 14 4.0 5.0 0.00 0.00 0.00 26 1020.8
20260905204842 87 81 4.0 7.0 0.00 0.00 0.00 27 1020.9
20260905203823 87 88 4.0 5.0 0.00 0.00 0.00 26 1021.1
20260905202817 87 20 3.0 4.0 0.00 0.00 0.00 27 1021.2
20260905201823 85 36 3.0 4.0 0.00 0.00 0.00 29 1021.2
20260905200820 86 108 6.0 12.0 0.00 0.00 0.00 27 1021.2
20260905195824 87 41 5.0 7.0 0.00 0.00 0.00 27 1021.3
20260905194823 86 27 3.0 4.0 0.00 0.00 0.00 28 1021.4
20260905193818 86 38 4.0 5.0 0.00 0.00 0.00 28 1021.5
20260905192839 86 49 4.0 6.0 0.00 0.00 0.00 28 1021.5
20260905191818 86 15 3.0 5.0 0.00 0.00 0.00 28 1021.6
20260905190818 85 37 4.0 6.0 0.00 0.00 0.00 29 1021.6
20260905185813 85 113 2.0 2.0 0.00 0.00 0.00 28 1021.7
20260905184839 85 31 1.0 3.0 0.00 0.00 0.00 29 1021.9
20260905183819 84 140 3.0 4.0 0.00 0.00 0.00 30 1021.8
20260905182819 85 172 4.0 5.0 0.00 0.00 0.00 30 1021.9
20260905181819 83 39 3.0 3.0 0.00 0.00 0.00 31 1022.0
20260905180830 81 118 3.0 5.0 0.00 0.00 0.00 34 1022.2
20260905175819 81 173 2.0 4.0 0.00 0.00 0.00 34 1022.2
20260905174819 82 25 5.0 7.0 0.00 0.00 0.00 33 1022.2
20260905173839 81 103 3.0 5.0 0.00 0.00 0.00 33 1022.2
20260905172819 81 13 4.0 5.0 0.00 0.00 0.00 33 1022.2
20260905171820 81 149 3.0 4.0 0.00 0.00 0.00 35 1022.1
20260905170920 82 124 5.0 6.0 0.00 0.00 0.00 34 1021.9
20260905165845 83 135 4.0 7.0 0.00 0.00 0.00 33 1021.9
20260905164841 82 18 4.0 6.0 0.00 0.00 0.00 31 1021.9
20260905163820 81 100 5.0 7.0 0.00 0.00 0.00 33 1021.8
20260905162821 81 162 2.0 5.0 0.00 0.00 0.00 33 1021.8
20260905161821 82 137 3.0 5.0 0.00 0.00 0.00 31 1021.7
20260905160842 81 107 4.0 5.0 0.00 0.00 0.00 31 1021.7
20260905155842 80 47 3.0 3.0 0.00 0.00 0.00 31 1021.8
20260905154841 79 129 2.0 3.0 0.00 0.00 0.00 31 1021.8
20260905153842 78 115 3.0 4.0 0.00 0.00 0.00 34 1021.8
20260905152842 76 154 2.0 3.0 0.00 0.00 0.00 35 1021.9
20260905151842 73 172 1.0 2.0 0.00 0.00 0.00 37 1022.0
20260905150818 72 330 1.0 2.0 0.00 0.00 0.00 41 1022.1
20260905145832 72 242 1.0 1.0 0.00 0.00 0.00 41 1022.1
20260905144836 73 205 2.0 3.0 0.00 0.00 0.00 41 1022.1
20260905143917 73 161 1.0 1.0 0.00 0.00 0.00 37 1022.1
20260905142816 74 140 1.0 1.0 0.00 0.00 0.00 37 1022.0
20260905141817 74 69 1.0 1.0 0.00 0.00 0.00 37 1022.0
20260905140845 73 208 2.0 2.0 0.00 0.00 0.00 39 1022.0
20260905135828 71 219 1.0 1.0 0.00 0.00 0.00 43 1021.9
20260905134829 0 308 1.0 2.0 0.00 0.00 0.00
20260905133828 67 255 1.0 1.0 0.00 0.00 0.00 45 1021.8
20260905132829 66 282 1.0 1.0 0.00 0.00 0.00 46 1021.9
20260905131833 65 213 1.0 1.0 0.00 0.00 0.00 47 1021.9
20260905130834 63 203 2.0 2.0 0.00 0.00 0.00 50 1021.9
20260905125818 64 219 1.0 1.0 0.00 0.00 0.00 51 1021.7
20260905124829 64 192 1.0 2.0 0.00 0.00 0.00 48 1021.5
20260905123830 66 217 1.0 2.0 0.00 0.00 0.00 46 1021.4
20260905122851 66 45 0.0 1.0 0.00 0.00 0.00 43 1021.3
20260905121850 66 242 1.0 1.0 0.00 0.00 0.00 42 1021.3
20260905120834 65 34 1.0 2.0 0.00 0.00 0.00 47 1021.2
20260905115828 66 0.0 0.0 0.00 0.00 0.00 45 1021.2
20260905114829 66 237 1.0 1.0 0.00 0.00 0.00 47 1021.2
20260905113830 66 353 0.0 1.0 0.00 0.00 0.00 45 1021.1
20260905112829 66 329 0.0 0.0 0.00 0.00 0.00 45 1021.1
20260905111829 67 0.0 0.0 0.00 0.00 0.00 44 1021.2
20260905110831 68 232 2.0 2.0 0.00 0.00 0.00 41 1021.1
20260905105819 0 238 1.0 1.0 0.00 0.00 0.00
20260905104830 69 245 0.0 1.0 0.00 0.00 0.00 42 1021.0
20260905103829 68 241 2.0 3.0 0.00 0.00 0.00 41 1021.0
20260905102830 66 294 1.0 1.0 0.00 0.00 0.00 46 1021.0
20260905101830 67 319 1.0 1.0 0.00 0.00 0.00 45 1020.9
20260905100830 68 267 0.0 1.0 0.00 0.00 0.00 43 1020.8
20260905095831 68 0.0 0.0 0.00 0.00 0.00 43 1020.7
20260905094830 68 319 1.0 1.0 0.00 0.00 0.00 44 1020.7
20260905093820 0 247 1.0 1.0 0.00 0.00 0.00